Vorticity
3 3 6 9 10 5 10 8 4 -5 -2 5 -3 -1 13 7 8 6 7 11 9 8 9 9 7 5 -1 7 11 4 3 4 4 4 4 4 6 6 7 5 10 8 8 6 7 6 7
2 3 3 6 9 5 4 10 11 7 7 5 6 1 8 10 14 8 10 14 15 10 7 6 3 6 1 5 3 4 7 6 6 5 5 9 7 9 8 10 10 6 6 6 6 10 9
4 3 3 3 3 7 6 7 7 9 8 8 10 12 15 5 3 3 6 7 7 7 5 3 2 4 10 13 5 3 3 4 4 7 7 6 8 12 9 12 19 14 12 8 4 17 18
7 7 5 3 4 2 5 6 4 5 5 6 6 8 9 8 8 8 8 9 9 9 6 5 6 6 5 4 5 6 6 6 12 13 9 7 15 15 16 13 15 13 24 19 13 11 8
5 4 7 7 5 4 3 2 4 6 6 7 9 9 7 6 6 6 6 5 4 4 4 6 5 2 7 9 5 8 13 15 18 18 15 15 13 9 10 6 14 7 -2 4 14 6 18
10 10 5 5 8 9 6 5 5 3 3 2 3 3 4 5 4 4 4 8 9 12 -1 3 11 2 7 9 3 10 9 12 13 9 9 11 11 13 11 5 -6 -3 6 3 9 13 9
9 11 9 10 6 6 7 8 9 9 7 7 5 2 0 -3 -4 -3 -1 1 5 8 4 18 10 9 9 -3 7 7 8 10 9 6 6 4 11 8 9 6 8 8 6 8 5 7 18
3 7 10 11 9 8 6 6 6 8 9 7 8 9 11 11 13 12 10 7 6 1 0 10 5 7 10 13 2 1 7 13 11 6 3 7 8 8 7 8 7 9 11 11 17 23 -2
4 3 5 7 11 10 9 7 6 6 5 6 6 4 6 8 10 11 16 15 12 10 5 -7 10 7 9 18 -6 5 4 6 3 4 6 13 2 9 4 6 7 13 13 18 11 7 15
4 3 4 4 6 9 12 10 9 6 7 7 6 4 4 4 5 8 12 11 15 18 3 -2 10 -12 6 16 -9 2 8 5 2 1 26 11 -7 10 6 8 10 9 6 8 6 12 1
5 3 1 -1 5 7 10 13 12 10 8 5 8 9 6 4 5 5 7 18 10 13 2 18 -1 1 8 7 17 1 8 11 3 1 14 -5 12 4 12 7 6 3 6 8 7 13 19
5 3 2 -2 1 5 8 11 12 12 9 10 6 4 7 9 7 7 6 11 14 16 -12 6 6 7 7 7 10 3 9 16 21 7 9 24 15 16 5 5 7 11 12 37 22 22 17
6 4 3 3 2 2 2 8 12 13 14 10 8 11 4 6 10 10 10 13 10 14 5 -3 -0 12 5 4 10 1 11 10 9 22 -17 21 12 11 13 4 18 2 18 9 14 14 -1
5 5 6 4 5 4 3 3 5 13 13 14 12 8 11 8 5 7 15 16 13 -6 4 4 5 15 3 5 7 2 9 6 4 4 31 2 16 -0 -7 6 -3 22 6 10 11 5 -12
5 4 4 4 2 3 4 4 3 6 14 13 12 13 11 10 6 8 11 11 5 7 -0 6 12 17 8 -0 14 12 11 10 7 2 21 14 8 6 12 8 16 -6 10 0 7 21 21
5 4 4 2 1 1 3 5 7 6 8 12 10 15 14 11 17 13 10 12 6 4 13 13 14 7 -3 -0 20 6 24 6 12 -0 2 -8 20 16 2 11 18 21 4 13 14 9 17
3 4 4 3 3 6 4 7 7 10 11 15 12 13 16 5 6 17 9 6 2 13 17 10 -0 5 5 11 -1 17 6 9 2 3 2 10 12 -13 9 13 6 7 6 5 13 7 8
4 2 2 4 4 5 7 7 7 8 7 13 11 12 16 6 18 10 5 4 5 19 3 13 5 16 8 5 18 26 -4 7 -2 11 9 13 18 -3 9 17 16 9 3 1 4 17 1
4 4 5 4 4 5 4 5 6 8 11 6 12 19 6 6 18 -2 -1 10 15 7 10 1 7 15 4 9 15 2 11 -12 22 1 -9 1 0 18 14 13 11 12 13 15 12 11 18
5 3 3 -0 -1 3 5 5 5 6 8 12 10 11 10 29 -7 1 6 21 -6 4 9 16 6 16 11 5 15 -5 -8 18 -5 4 7 18 16 -6 -38 -32 -14 -3 -6 -5 12 6 0
2 1 3 5 5 4 3 4 7 7 9 8 9 2 4 -7 15 5 6 3 5 6 12 4 -3 7 13 9 -6 38 -11 -4 6 13 18 24 4 -2 14 -1 27 30 31 27 7 6 -14
4 5 3 4 3 -0 -1 3 7 7 7 7 10 11 7 4 5 7 7 3 5 17 2 3 21 3 -2 11 13 4 11 11 7 6 4 5 7 -16 17 39 18 -9 2 8 12 22 8
7 7 5 5 2 5 3 1 2 6 7 6 4 7 5 -4 9 5 4 9 2 1 19 -8 -1 9 -1 9 5 -0 6 11 8 9 12 10 10 -8 26 0 -2 78 15 20 2 10 17
7 8 9 9 9 8 8 7 5 3 8 8 8 11 9 -1 10 4 6 2 3 5 6 6 6 5 11 13 2 2 12 19 8 13 18 7 4 18 -0 52 24 -24 -16 -1 15 5 17
12 10 10 10 9 5 7 6 6 7 6 12 9 11 10 4 10 4 8 5 7 5 -0 14 5 0 12 15 18 23 8 43 37 15 22 30 22 -2 -3 8 -21 75 11 18 -1 11 20
8 9 8 6 6 6 7 6 9 12 15 13 8 8 1 3 2 14 19 9 11 4 6 8 4 25 -10 -4 22 13 -3 1 23 2 3 13 23 -12 15 9 -3 -18 -11 7 -8 42 3
9 9 11 11 14 19 22 21 19 18 16 15 13 11 10 5 1 17 23 24 29 16 15 17 5 23 9 -4 20 10 6 -2 1 3 2 15 13 1 7 -11 8 9 21 21 29 4 -23
13 14 14 13 11 11 11 11 11 12 13 12 14 9 6 8 6 5 11 27 8 -2 -8 -4 1 25 31 27 24 10 12 11 21 5 -0 12 20 3 41 8 20 28 0 5 -8 -48 -26
14 14 13 13 13 13 13 13 13 13 12 11 15 15 11 4 -25 -15 -40 -46 -40 5 25 7 2 -3 -18 9 15 32 15 0 1 1 14 15 -7 -1 -20 -46 -51 -32 -26 -14 12 9 -7
Height
3129 3124 3118 3112 3106 3101 3095 3089 3085 3081 3080 3082 3082 3083 3083 3084 3083 3087 3090 3091 3091 3093 3096 3099 3102 3104 3107 3108 3109 3110 3111 3112 3112 3112 3111 3111 3110 3109 3108 3107 3107 3104 3103 3101 3100 3099 3097
3136 3131 3127 3122 3117 3112 3107 3103 3098 3095 3092 3090 3089 3089 3090 3092 3094 3096 3098 3099 3099 3100 3101 3103 3106 3107 3109 3111 3112 3113 3113 3112 3112 3112 3110 3109 3108 3108 3106 3105 3103 3101 3099 3098 3096 3094 3091
3142 3138 3134 3130 3126 3122 3117 3113 3110 3107 3103 3101 3100 3098 3099 3100 3100 3101 3101 3102 3104 3105 3107 3108 3109 3109 3111 3114 3112 3112 3112 3113 3113 3112 3109 3108 3106 3105 3102 3101 3098 3097 3094 3092 3092 3089 3085
3148 3144 3141 3136 3133 3130 3127 3124 3120 3117 3114 3112 3110 3109 3108 3108 3108 3108 3108 3108 3108 3109 3111 3111 3111 3112 3112 3112 3113 3114 3114 3113 3112 3109 3108 3105 3103 3100 3098 3098 3096 3094 3092 3088 3087 3085 3084
3154 3150 3146 3143 3140 3136 3133 3131 3128 3126 3123 3120 3118 3116 3114 3113 3113 3113 3113 3113 3113 3112 3112 3113 3115 3114 3114 3115 3114 3114 3113 3113 3110 3107 3103 3101 3100 3099 3097 3095 3095 3093 3090 3086 3082 3083 3080
3160 3156 3152 3148 3145 3143 3139 3136 3133 3131 3130 3128 3126 3124 3122 3120 3119 3118 3117 3117 3117 3116 3116 3116 3116 3118 3117 3117 3115 3115 3112 3107 3103 3102 3102 3101 3099 3097 3095 3094 3093 3091 3087 3083 3079 3078 3075
3165 3161 3157 3153 3150 3147 3144 3142 3139 3136 3133 3132 3130 3129 3128 3127 3125 3124 3123 3121 3123 3123 3120 3119 3119 3118 3116 3115 3112 3110 3108 3105 3102 3102 3102 3099 3099 3096 3095 3093 3090 3088 3084 3079 3075 3073 3069
3170 3166 3162 3158 3154 3151 3148 3145 3142 3140 3138 3136 3133 3132 3130 3128 3127 3125 3124 3122 3122 3123 3121 3120 3119 3117 3116 3114 3112 3109 3107 3105 3102 3100 3099 3099 3097 3095 3093 3091 3088 3084 3080 3075 3071 3069 3065
3174 3171 3166 3162 3159 3155 3152 3149 3146 3143 3140 3138 3136 3134 3132 3130 3128 3126 3123 3122 3121 3121 3121 3120 3119 3117 3116 3115 3112 3110 3108 3105 3103 3101 3099 3097 3097 3094 3092 3089 3085 3081 3076 3072 3069 3064 3059
3177 3174 3170 3166 3163 3159 3156 3152 3149 3146 3143 3140 3138 3135 3132 3130 3129 3126 3124 3122 3121 3120 3121 3122 3120 3119 3118 3114 3113 3111 3109 3108 3104 3102 3098 3096 3094 3092 3089 3086 3083 3077 3074 3070 3066 3064 3058
3180 3177 3174 3169 3165 3162 3158 3155 3152 3148 3146 3143 3140 3138 3135 3132 3130 3127 3126 3123 3121 3121 3123 3125 3122 3120 3117 3117 3115 3112 3109 3107 3104 3101 3100 3096 3091 3089 3086 3084 3081 3077 3072 3068 3064 3062 3058
3182 3179 3176 3173 3169 3164 3160 3157 3153 3150 3147 3144 3142 3139 3137 3135 3133 3130 3127 3124 3123 3124 3123 3124 3122 3120 3118 3115 3113 3111 3108 3105 3103 3100 3096 3093 3090 3089 3086 3084 3080 3076 3070 3065 3060 3059 3058
3183 3180 3178 3175 3171 3167 3163 3159 3155 3151 3148 3145 3142 3140 3137 3135 3134 3131 3128 3126 3126 3123 3127 3125 3121 3118 3116 3114 3112 3110 3107 3105 3103 3100 3095 3091 3089 3087 3085 3083 3079 3077 3071 3064 3063 3061 3055
3182 3180 3177 3175 3172 3169 3165 3161 3156 3152 3148 3145 3142 3139 3137 3135 3133 3131 3128 3127 3125 3126 3124 3122 3119 3117 3115 3114 3112 3109 3107 3105 3102 3100 3094 3090 3086 3085 3083 3082 3079 3077 3076 3076 3077 3067 3054
3182 3179 3176 3173 3171 3168 3165 3162 3159 3154 3148 3144 3141 3139 3136 3134 3133 3131 3130 3127 3127 3126 3124 3121 3118 3116 3115 3113 3112 3109 3106 3104 3102 3100 3099 3093 3085 3082 3080 3078 3079 3076 3077 3077 3073 3066 3062
3180 3177 3175 3172 3169 3166 3163 3161 3157 3154 3150 3145 3141 3138 3135 3133 3131 3130 3130 3128 3127 3125 3123 3121 3119 3117 3115 3113 3111 3108 3105 3104 3102 3100 3098 3094 3086 3080 3078 3076 3074 3073 3075 3074 3074 3074 3063
3178 3175 3172 3170 3167 3164 3161 3158 3155 3152 3148 3145 3141 3137 3135 3132 3131 3130 3129 3128 3126 3124 3122 3121 3119 3117 3116 3113 3110 3107 3105 3104 3101 3099 3096 3092 3089 3082 3077 3073 3071 3070 3070 3071 3072 3071 3072
3173 3172 3169 3167 3165 3162 3159 3156 3152 3149 3147 3143 3140 3137 3134 3132 3132 3129 3128 3126 3125 3122 3121 3120 3118 3115 3113 3111 3109 3107 3105 3103 3100 3098 3095 3092 3087 3077 3074 3071 3070 3069 3068 3068 3068 3067 3066
3170 3167 3166 3163 3162 3159 3156 3152 3149 3146 3144 3141 3139 3136 3134 3132 3130 3128 3128 3126 3122 3121 3119 3117 3116 3115 3112 3111 3109 3105 3103 3102 3099 3098 3095 3091 3086 3080 3073 3073 3070 3067 3066 3066 3064 3063 3058
3162 3161 3159 3158 3156 3154 3151 3149 3145 3143 3141 3139 3136 3134 3132 3130 3128 3126 3123 3122 3121 3119 3116 3115 3113 3112 3110 3108 3108 3104 3102 3100 3098 3095 3093 3089 3081 3081 3077 3073 3070 3065 3063 3062 3062 3056 3047
3157 3156 3154 3153 3151 3148 3144 3142 3141 3139 3137 3136 3133 3132 3130 3128 3125 3123 3121 3120 3119 3117 3114 3113 3110 3109 3106 3105 3103 3101 3099 3098 3095 3092 3089 3086 3078 3074 3067 3064 3060 3051 3049 3050 3047 3045 3042
3149 3148 3147 3145 3143 3141 3138 3137 3135 3133 3132 3132 3130 3127 3123 3123 3122 3120 3117 3116 3114 3114 3113 3110 3108 3105 3103 3100 3100 3095 3094 3091 3088 3084 3082 3079 3073 3067 3057 3056 3050 3041 3038 3037 3036 3035 3030
3141 3140 3138 3137 3136 3135 3134 3132 3130 3128 3125 3123 3122 3119 3116 3115 3115 3115 3113 3111 3110 3108 3108 3106 3104 3099 3098 3097 3093 3090 3088 3085 3083 3080 3076 3073 3070 3067 3052 3052 3047 3035 3028 3028 3027 3026 3025
3131 3130 3129 3128 3127 3126 3125 3124 3123 3121 3118 3115 3113 3111 3107 3102 3105 3106 3105 3105 3104 3103 3100 3100 3098 3093 3092 3089 3085 3082 3080 3077 3074 3072 3070 3067 3067 3067 3054 3050 3045 3028 3025 3024 3023 3022 3019
3121 3120 3119 3118 3118 3117 3115 3114 3113 3112 3109 3106 3105 3104 3099 3091 3093 3095 3096 3095 3095 3094 3092 3089 3090 3088 3085 3083 3077 3071 3071 3067 3063 3062 3060 3060 3063 3062 3056 3047 3034 3023 3021 3020 3020 3019 3016
3110 3109 3108 3107 3107 3106 3105 3104 3102 3101 3099 3097 3095 3094 3092 3085 3080 3084 3085 3086 3083 3083 3082 3080 3080 3079 3078 3075 3073 3066 3066 3064 3058 3056 3055 3054 3055 3058 3051 3047 3034 3024 3021 3019 3017 3014 3014
3098 3097 3096 3095 3094 3093 3092 3091 3090 3090 3089 3087 3085 3086 3083 3076 3071 3073 3075 3075 3075 3074 3071 3071 3071 3070 3070 3066 3063 3061 3057 3057 3052 3049 3048 3049 3047 3044 3042 3037 3020 3020 3017 3016 3018 3017 3012
3086 3086 3085 3083 3082 3082 3081 3081 3080 3079 3079 3076 3075 3075 3075 3065 3059 3059 3062 3064 3066 3067 3065 3065 3064 3058 3058 3056 3053 3051 3046 3046 3040 3039 3040 3042 3041 3037 3033 3031 3019 3014 3013 3015 3012 3008 3005
3074 3074 3074 3073 3073 3072 3071 3070 3069 3068 3067 3064 3063 3063 3063 3058 3049 3049 3050 3053 3056 3058 3057 3053 3052 3051 3050 3046 3043 3040 3035 3030 3032 3027 3030 3031 3032 3029 3021 3010 3014 3010 3008 3008 3005 2999 2997